Location: Newark
(45.5167°N, 11.1667°E)
Time: 22:33:55
(UTC+00:00)

Explorer 7 - Pass Details

Date: 15 December 2019
Orbit: 485 x 679 km, 50.3° (Epoch: 22 January)

Event Time Altitude Azimuth Distance (km) Brightness Sun altitude
Rises 18:35:46 0° 295° (WNW) 3,036 11.5 -31.1°
Reaches altitude 10° 18:38:09 10° 294° (WNW) 2,120 10.5 -31.5°
Enters shadow 18:41:03 36° 287° (WNW) 1,079 8.6 -32.0°
Maximum altitude 18:43:04 75° 210° (SSW) 699 - -32.3°
Drops below altitude 10° 18:47:50 10° 125° (SE) 2,062 - -33.2°
Sets 18:50:08 0° 124° (ESE) 2,947 - -33.6°
